Time,TemperatureF,DewpointF,PressureIn,WindDirection,WindDirectionDegrees,WindSpeedMPH,WindSpeedGustMPH,Humidity,HourlyPrecipIn,Conditions,Clouds,dailyrainin,SoftwareType,DateUTC
2013-03-31 00:00:00,55.9,54.8,29.89,East,94,0.0,1.0,96,0.00,,---,0.00,VWS V14.01,2013-03-31 05:00:00,
2013-03-31 00:05:00,55.7,54.6,29.90,East,94,0.0,0.0,96,0.00,,---,0.00,VWS V14.01,2013-03-31 05:05:00,
2013-03-31 00:10:00,55.6,54.5,29.89,East,94,0.0,0.0,96,0.00,,---,0.00,VWS V14.01,2013-03-31 05:10:00,
2013-03-31 00:15:00,55.4,54.3,29.90,East,94,0.0,0.0,96,0.00,,---,0.00,VWS V14.01,2013-03-31 05:15:00,
2013-03-31 00:20:00,55.1,54.0,29.90,East,94,0.0,0.0,96,0.00,,---,0.00,VWS V14.01,2013-03-31 05:20:00,
2013-03-31 00:25:00,55.1,54.0,29.89,East,94,0.0,0.0,96,0.00,,---,0.00,VWS V14.01,2013-03-31 05:25:00,
2013-03-31 00:30:00,55.0,53.9,29.89,East,94,0.0,0.0,96,0.00,,---,0.00,VWS V14.01,2013-03-31 05:30:00,
2013-03-31 00:35:00,55.1,54.0,29.89,East,94,0.0,0.0,96,0.00,,---,0.00,VWS V14.01,2013-03-31 05:35:00,
2013-03-31 00:40:00,55.4,54.6,29.89,East,94,0.0,0.0,97,0.00,,---,0.00,VWS V14.01,2013-03-31 05:40:00,
2013-03-31 00:45:00,55.6,54.8,29.89,East,94,0.0,0.0,97,0.00,,---,0.00,VWS V14.01,2013-03-31 05:45:00,
2013-03-31 00:50:00,55.6,54.8,29.88,East,94,0.0,0.0,97,0.00,,---,0.00,VWS V14.01,2013-03-31 05:50:00,
2013-03-31 00:55:00,55.4,54.6,29.88,East,94,0.0,0.0,97,0.00,,---,0.00,VWS V14.01,2013-03-31 05:55:00,
2013-03-31 01:00:00,55.1,54.0,29.88,East,94,0.0,0.0,96,0.00,,---,0.00,VWS V14.01,2013-03-31 06:00:00,
2013-03-31 01:05:00,55.3,54.2,29.89,East,94,0.0,0.0,96,0.00,,---,0.00,VWS V14.01,2013-03-31 06:05:00,
2013-03-31 01:10:00,55.6,54.8,29.89,East,94,0.0,0.0,97,0.00,,---,0.00,VWS V14.01,2013-03-31 06:10:00,
2013-03-31 01:15:00,55.9,55.1,29.89,East,94,0.0,0.0,97,0.00,,---,0.00,VWS V14.01,2013-03-31 06:15:00,
2013-03-31 01:20:00,56.0,55.2,29.90,East,94,0.0,2.0,97,0.00,,---,0.00,VWS V14.01,2013-03-31 06:20:00,
2013-03-31 01:25:00,55.7,54.9,29.90,East,94,0.0,1.0,97,0.00,,---,0.00,VWS V14.01,2013-03-31 06:25:00,
2013-03-31 01:30:00,56.0,55.2,29.90,East,94,0.0,0.0,97,0.00,,---,0.00,VWS V14.01,2013-03-31 06:30:00,
2013-03-31 01:35:00,56.2,55.4,29.90,East,94,0.0,0.0,97,0.00,,---,0.00,VWS V14.01,2013-03-31 06:35:00,
2013-03-31 01:40:00,56.2,55.4,29.90,East,94,0.0,0.0,97,0.00,,---,0.00,VWS V14.01,2013-03-31 06:40:00,
2013-03-31 01:45:00,56.3,55.5,29.89,East,94,0.0,0.0,97,0.00,,---,0.00,VWS V14.01,2013-03-31 06:45:00,
2013-03-31 01:50:00,56.6,55.8,29.89,East,94,0.0,0.0,97,0.00,,---,0.00,VWS V14.01,2013-03-31 06:50:00,
2013-03-31 01:55:00,56.7,55.9,29.90,East,94,0.0,0.0,97,0.00,,---,0.00,VWS V14.01,2013-03-31 06:55:00,
2013-03-31 02:00:00,57.2,56.4,29.90,East,94,0.0,0.0,97,0.00,,---,0.00,VWS V14.01,2013-03-31 07:00:00,
2013-03-31 02:05:00,57.2,56.4,29.89,East,94,0.0,0.0,97,0.00,,---,0.00,VWS V14.01,2013-03-31 07:05:00,
2013-03-31 02:10:00,57.6,56.8,29.89,East,94,0.0,0.0,97,0.00,,---,0.00,VWS V14.01,2013-03-31 07:10:00,
2013-03-31 02:15:00,58.0,57.2,29.89,East,94,0.0,0.0,97,0.00,,---,0.00,VWS V14.01,2013-03-31 07:15:00,
2013-03-31 02:20:00,58.0,57.2,29.89,East,94,0.0,0.0,97,0.00,,---,0.00,VWS V14.01,2013-03-31 07:20:00,
2013-03-31 02:25:00,58.0,57.2,29.91,NE,35,1.0,5.0,97,0.00,,---,0.00,VWS V14.01,2013-03-31 07:25:00,
2013-03-31 02:30:00,58.7,57.8,29.91,WNW,296,3.0,5.0,97,0.00,,---,0.00,VWS V14.01,2013-03-31 07:30:00,
2013-03-31 02:35:00,59.8,59.0,29.90,NW,311,2.0,5.0,97,0.00,,---,0.00,VWS V14.01,2013-03-31 07:35:00,
2013-03-31 02:40:00,60.4,59.5,29.90,NW,321,1.0,6.0,97,0.00,,---,0.00,VWS V14.01,2013-03-31 07:40:00,
2013-03-31 02:45:00,60.2,59.3,29.90,NE,40,6.0,14.0,97,0.01,,---,0.01,VWS V14.01,2013-03-31 07:45:00,
2013-03-31 02:50:00,59.3,58.5,29.89,SE,143,2.0,6.0,97,0.09,,---,0.09,VWS V14.01,2013-03-31 07:50:00,
2013-03-31 02:55:00,58.9,58.0,29.89,NNE,29,6.0,6.0,97,0.09,,---,0.09,VWS V14.01,2013-03-31 07:55:00,
2013-03-31 03:00:00,58.9,58.0,29.89,NNE,29,2.0,2.0,97,0.09,,---,0.09,VWS V14.01,2013-03-31 08:00:00,
2013-03-31 03:05:00,58.7,57.6,29.87,NNE,29,0.0,0.0,96,0.09,,---,0.09,VWS V14.01,2013-03-31 08:05:00,
2013-03-31 03:10:00,58.4,57.3,29.87,NE,42,0.0,0.0,96,0.10,,---,0.10,VWS V14.01,2013-03-31 08:10:00,
2013-03-31 03:15:00,58.1,57.0,29.86,NE,42,0.0,0.0,96,0.10,,---,0.10,VWS V14.01,2013-03-31 08:15:00,
2013-03-31 03:20:00,58.0,56.9,29.86,NE,42,0.0,0.0,96,0.10,,---,0.10,VWS V14.01,2013-03-31 08:20:00,
2013-03-31 03:25:00,57.5,56.4,29.86,NE,42,0.0,0.0,96,0.10,,---,0.10,VWS V14.01,2013-03-31 08:25:00,
2013-03-31 03:30:00,57.2,56.1,29.86,NE,42,0.0,0.0,96,0.10,,---,0.10,VWS V14.01,2013-03-31 08:30:00,
2013-03-31 03:35:00,57.0,55.9,29.87,NE,42,0.0,0.0,96,0.10,,---,0.10,VWS V14.01,2013-03-31 08:35:00,
2013-03-31 03:40:00,56.6,55.5,29.87,NE,42,0.0,0.0,96,0.10,,---,0.10,VWS V14.01,2013-03-31 08:40:00,
2013-03-31 03:45:00,56.2,55.1,29.87,NE,42,0.0,0.0,96,0.09,,---,0.10,VWS V14.01,2013-03-31 08:45:00,
2013-03-31 03:50:00,55.9,54.8,29.87,NE,43,1.0,1.0,96,0.01,,---,0.10,VWS V14.01,2013-03-31 08:50:00,
2013-03-31 03:55:00,56.6,55.5,29.86,NE,43,0.0,0.0,96,0.01,,---,0.10,VWS V14.01,2013-03-31 08:55:00,
2013-03-31 04:00:00,56.7,55.6,29.86,NE,43,0.0,0.0,96,0.01,,---,0.10,VWS V14.01,2013-03-31 09:00:00,
2013-03-31 04:05:00,56.7,55.6,29.86,NE,43,0.0,0.0,96,0.01,,---,0.10,VWS V14.01,2013-03-31 09:05:00,
2013-03-31 04:10:00,56.6,55.5,29.85,NE,43,0.0,0.0,96,0.00,,---,0.10,VWS V14.01,2013-03-31 09:10:00,
2013-03-31 04:15:00,56.6,55.5,29.85,NE,43,0.0,0.0,96,0.00,,---,0.10,VWS V14.01,2013-03-31 09:15:00,
2013-03-31 04:20:00,56.6,55.5,29.85,NE,43,0.0,0.0,96,0.00,,---,0.10,VWS V14.01,2013-03-31 09:20:00,
2013-03-31 04:25:00,56.5,55.4,29.85,NE,43,0.0,0.0,96,0.00,,---,0.10,VWS V14.01,2013-03-31 09:25:00,
2013-03-31 04:30:00,56.5,55.4,29.84,NE,43,0.0,0.0,96,0.00,,---,0.10,VWS V14.01,2013-03-31 09:30:00,
2013-03-31 04:35:00,56.3,55.2,29.84,NE,43,0.0,0.0,96,0.00,,---,0.10,VWS V14.01,2013-03-31 09:35:00,
2013-03-31 04:40:00,56.0,54.9,29.84,NE,43,0.0,0.0,96,0.00,,---,0.10,VWS V14.01,2013-03-31 09:40:00,
2013-03-31 04:45:00,55.6,54.5,29.84,NE,43,0.0,0.0,96,0.00,,---,0.10,VWS V14.01,2013-03-31 09:45:00,
2013-03-31 04:50:00,55.3,54.2,29.84,NE,43,0.0,0.0,96,0.00,,---,0.10,VWS V14.01,2013-03-31 09:50:00,
2013-03-31 04:55:00,55.1,54.0,29.84,NE,43,0.0,0.0,96,0.00,,---,0.10,VWS V14.01,2013-03-31 09:55:00,
2013-03-31 05:00:00,55.0,53.9,29.84,NE,43,0.0,0.0,96,0.00,,---,0.10,VWS V14.01,2013-03-31 10:00:00,
2013-03-31 05:05:00,55.1,54.0,29.84,NE,43,0.0,0.0,96,0.00,,---,0.10,VWS V14.01,2013-03-31 10:05:00,
2013-03-31 05:10:00,55.1,54.3,29.84,NE,43,0.0,0.0,97,0.00,,---,0.10,VWS V14.01,2013-03-31 10:10:00,
2013-03-31 05:15:00,55.1,54.0,29.84,NE,43,0.0,0.0,96,0.00,,---,0.10,VWS V14.01,2013-03-31 10:15:00,
2013-03-31 05:20:00,55.1,54.3,29.84,NE,43,0.0,0.0,97,0.00,,---,0.10,VWS V14.01,2013-03-31 10:20:00,
2013-03-31 05:25:00,55.0,53.9,29.84,NE,43,0.0,0.0,96,0.00,,---,0.10,VWS V14.01,2013-03-31 10:25:00,
2013-03-31 05:30:00,55.1,54.3,29.84,NE,43,0.0,0.0,97,0.00,,---,0.10,VWS V14.01,2013-03-31 10:30:00,
2013-03-31 05:35:00,55.0,54.2,29.84,NE,43,0.0,0.0,97,0.00,,---,0.10,VWS V14.01,2013-03-31 10:35:00,
2013-03-31 05:40:00,54.8,53.7,29.83,NE,43,0.0,0.0,96,0.00,,---,0.10,VWS V14.01,2013-03-31 10:40:00,
2013-03-31 05:45:00,54.8,54.0,29.83,NE,43,0.0,0.0,97,0.00,,---,0.10,VWS V14.01,2013-03-31 10:45:00,
2013-03-31 05:50:00,55.1,54.3,29.83,NE,47,0.0,0.0,97,0.00,,---,0.10,VWS V14.01,2013-03-31 10:50:00,
2013-03-31 05:55:00,55.4,54.6,29.83,NE,51,0.0,0.0,97,0.00,,---,0.10,VWS V14.01,2013-03-31 10:55:00,
2013-03-31 06:00:00,55.6,54.8,29.83,NE,51,0.0,0.0,97,0.00,,---,0.10,VWS V14.01,2013-03-31 11:00:00,
2013-03-31 06:05:00,55.4,54.6,29.82,NE,51,0.0,0.0,97,0.00,,---,0.10,VWS V14.01,2013-03-31 11:05:00,
2013-03-31 06:10:00,55.6,54.8,29.82,NE,51,0.0,0.0,97,0.00,,---,0.10,VWS V14.01,2013-03-31 11:10:00,
2013-03-31 06:15:00,55.9,55.1,29.82,NE,51,0.0,0.0,97,0.00,,---,0.10,VWS V14.01,2013-03-31 11:15:00,
2013-03-31 06:20:00,56.2,55.4,29.82,NE,51,0.0,0.0,97,0.00,,---,0.10,VWS V14.01,2013-03-31 11:20:00,
2013-03-31 06:25:00,56.3,55.5,29.82,NE,51,0.0,0.0,97,0.00,,---,0.10,VWS V14.01,2013-03-31 11:25:00,
2013-03-31 06:30:00,56.3,55.5,29.82,NE,51,0.0,0.0,97,0.00,,---,0.10,VWS V14.01,2013-03-31 11:30:00,
2013-03-31 06:35:00,56.7,55.9,29.83,ENE,66,0.0,2.0,97,0.00,,---,0.10,VWS V14.01,2013-03-31 11:35:00,
2013-03-31 06:40:00,57.0,56.2,29.83,ENE,66,0.0,2.0,97,0.00,,---,0.10,VWS V14.01,2013-03-31 11:40:00,
2013-03-31 06:45:00,57.5,56.7,29.82,ENE,66,0.0,2.0,97,0.00,,---,0.10,VWS V14.01,2013-03-31 11:45:00,
2013-03-31 06:50:00,57.8,57.0,29.83,ENE,66,0.0,2.0,97,0.00,,---,0.10,VWS V14.01,2013-03-31 11:50:00,
2013-03-31 06:55:00,58.1,57.3,29.82,ENE,66,0.0,1.0,97,0.00,,---,0.10,VWS V14.01,2013-03-31 11:55:00,
2013-03-31 07:00:00,58.1,57.3,29.83,SSE,152,2.0,2.0,97,0.00,,---,0.10,VWS V14.01,2013-03-31 12:00:00,
2013-03-31 07:05:00,59.3,58.5,29.83,SE,139,1.0,3.0,97,0.00,,---,0.10,VWS V14.01,2013-03-31 12:05:00,
2013-03-31 07:10:00,59.5,58.7,29.83,SE,139,1.0,1.0,97,0.00,,---,0.10,VWS V14.01,2013-03-31 12:10:00,
2013-03-31 07:15:00,59.8,59.0,29.83,SE,145,0.0,3.0,97,0.00,,---,0.10,VWS V14.01,2013-03-31 12:15:00,
2013-03-31 07:20:00,59.9,59.0,29.84,SE,126,2.0,6.0,97,0.00,,---,0.10,VWS V14.01,2013-03-31 12:20:00,
2013-03-31 07:25:00,60.2,59.3,29.85,SE,139,2.0,3.0,97,0.00,,---,0.10,VWS V14.01,2013-03-31 12:25:00,
2013-03-31 07:30:00,60.2,59.3,29.84,SE,139,0.0,1.0,97,0.00,,---,0.10,VWS V14.01,2013-03-31 12:30:00,
2013-03-31 07:35:00,60.2,59.3,29.84,SE,139,0.0,0.0,97,0.00,,---,0.10,VWS V14.01,2013-03-31 12:35:00,
2013-03-31 07:40:00,60.2,59.3,29.85,SE,139,0.0,1.0,97,0.00,,---,0.10,VWS V14.01,2013-03-31 12:40:00,
2013-03-31 07:45:00,60.2,59.3,29.84,SE,139,0.0,0.0,97,0.00,,---,0.10,VWS V14.01,2013-03-31 12:45:00,
2013-03-31 07:50:00,60.2,59.3,29.85,SE,139,0.0,0.0,97,0.00,,---,0.10,VWS V14.01,2013-03-31 12:50:00,
2013-03-31 07:55:00,60.2,59.3,29.85,SE,139,0.0,0.0,97,0.00,,---,0.10,VWS V14.01,2013-03-31 12:55:00,
2013-03-31 08:00:00,60.1,59.2,29.85,SE,139,0.0,0.0,97,0.00,,---,0.10,VWS V14.01,2013-03-31 13:00:00,
2013-03-31 08:05:00,59.9,59.0,29.86,SE,139,0.0,0.0,97,0.00,,---,0.10,VWS V14.01,2013-03-31 13:05:00,
2013-03-31 08:10:00,59.6,58.8,29.85,SE,139,0.0,0.0,97,0.00,,---,0.10,VWS V14.01,2013-03-31 13:10:00,
2013-03-31 08:15:00,59.9,59.0,29.88,WNW,291,17.0,17.0,97,0.00,,---,0.10,VWS V14.01,2013-03-31 13:15:00,
2013-03-31 08:20:00,57.2,56.1,29.89,NNW,331,26.0,26.0,96,0.18,,---,0.28,VWS V14.01,2013-03-31 13:20:00,
2013-03-31 08:25:00,56.6,55.5,29.93,NNW,332,10.0,10.0,96,0.30,,---,0.40,VWS V14.01,2013-03-31 13:25:00,
2013-03-31 08:30:00,56.3,55.2,29.93,NNW,337,6.0,16.0,96,0.44,,---,0.54,VWS V14.01,2013-03-31 13:30:00,
2013-03-31 08:35:00,56.3,55.2,29.94,NNW,341,3.0,12.0,96,0.52,,---,0.62,VWS V14.01,2013-03-31 13:35:00,
2013-03-31 08:40:00,56.3,55.2,29.95,NNE,16,1.0,7.0,96,0.55,,---,0.65,VWS V14.01,2013-03-31 13:40:00,
2013-03-31 08:45:00,56.3,55.2,29.95,North,3,3.0,10.0,96,0.57,,---,0.67,VWS V14.01,2013-03-31 13:45:00,
2013-03-31 08:50:00,56.5,55.7,29.94,North,359,6.0,6.0,97,0.59,,---,0.69,VWS V14.01,2013-03-31 13:50:00,
2013-03-31 08:55:00,56.6,55.8,29.94,NNW,347,5.0,8.0,97,0.60,,---,0.70,VWS V14.01,2013-03-31 13:55:00,
2013-03-31 09:00:00,56.7,55.9,29.93,North,352,1.0,6.0,97,0.61,,---,0.71,VWS V14.01,2013-03-31 14:00:00,
2013-03-31 12:18:00,60.4,59.0,29.90,North,6,7.0,8.0,95,0.00,,---,0.99,VWS V14.01,2013-03-31 17:18:00,
2013-03-31 12:23:00,61.2,60.0,29.90,NNE,12,1.0,2.0,96,0.00,,---,0.99,VWS V14.01,2013-03-31 17:23:00,
2013-03-31 12:28:00,61.8,60.4,29.90,North,351,3.0,5.0,95,0.00,,---,0.99,VWS V14.01,2013-03-31 17:28:00,
2013-03-31 12:33:00,62.0,59.7,29.90,North,5,1.0,5.0,92,0.00,,---,0.99,VWS V14.01,2013-03-31 17:33:00,
2013-03-31 12:38:00,62.4,60.0,29.90,NNE,27,2.0,6.0,92,0.00,,---,0.99,VWS V14.01,2013-03-31 17:38:00,
2013-03-31 12:43:00,62.3,59.6,29.91,NNE,32,6.0,10.0,91,0.00,,---,0.99,VWS V14.01,2013-03-31 17:43:00,
2013-03-31 12:48:00,62.7,60.0,29.91,NE,54,3.0,10.0,91,0.00,,---,0.99,VWS V14.01,2013-03-31 17:48:00,
2013-03-31 12:53:00,63.5,59.6,29.90,ENE,57,3.0,6.0,87,0.00,,---,0.99,VWS V14.01,2013-03-31 17:53:00,
2013-03-31 12:58:00,64.0,59.7,29.90,NNE,27,1.0,6.0,86,0.00,,---,0.99,VWS V14.01,2013-03-31 17:58:00,
2013-03-31 13:03:00,64.2,59.3,29.90,NNE,13,5.0,6.0,84,0.00,,---,0.99,VWS V14.01,2013-03-31 18:03:00,
2013-03-31 13:08:00,64.3,58.0,29.90,NNE,30,1.0,10.0,80,0.00,,---,0.99,VWS V14.01,2013-03-31 18:08:00,
2013-03-31 13:13:00,64.7,58.4,29.90,NE,47,2.0,6.0,80,0.00,,---,0.99,VWS V14.01,2013-03-31 18:13:00,
2013-03-31 13:18:00,65.3,59.0,29.90,SE,138,2.0,6.0,80,0.00,,---,0.99,VWS V14.01,2013-03-31 18:18:00,
2013-03-31 13:23:00,65.8,59.5,29.90,East,81,1.0,6.0,80,0.00,,---,0.99,VWS V14.01,2013-03-31 18:23:00,
2013-03-31 13:28:00,66.0,58.6,29.90,North,355,1.0,7.0,77,0.00,,---,0.99,VWS V14.01,2013-03-31 18:28:00,
2013-03-31 13:33:00,66.4,58.2,29.90,West,273,3.0,6.0,75,0.00,,---,0.99,VWS V14.01,2013-03-31 18:33:00,
2013-03-31 13:38:00,66.6,58.4,29.90,West,267,1.0,3.0,75,0.00,,---,0.99,VWS V14.01,2013-03-31 18:38:00,
2013-03-31 13:43:00,67.4,59.2,29.90,East,80,1.0,5.0,75,0.00,,---,0.99,VWS V14.01,2013-03-31 18:43:00,
2013-03-31 13:48:00,67.6,59.4,29.90,East,90,3.0,7.0,75,0.00,,---,0.99,VWS V14.01,2013-03-31 18:48:00,
2013-03-31 13:53:00,67.4,58.5,29.90,ENE,78,3.0,5.0,73,0.00,,---,0.99,VWS V14.01,2013-03-31 18:53:00,
2013-03-31 13:58:00,67.9,57.0,29.90,NE,43,6.0,12.0,68,0.00,,---,0.99,VWS V14.01,2013-03-31 18:58:00,
2013-03-31 14:03:00,67.9,57.0,29.90,East,99,5.0,6.0,68,0.00,,---,0.99,VWS V14.01,2013-03-31 19:03:00,
2013-03-31 14:08:00,68.1,57.6,29.90,NNW,345,2.0,6.0,69,0.00,,---,0.99,VWS V14.01,2013-03-31 19:08:00,
2013-03-31 14:13:00,68.3,57.8,29.90,ESE,114,2.0,7.0,69,0.00,,---,0.99,VWS V14.01,2013-03-31 19:13:00,
2013-03-31 14:18:00,67.8,56.9,29.90,North,5,2.0,6.0,68,0.00,,---,0.99,VWS V14.01,2013-03-31 19:18:00,
2013-03-31 14:23:00,67.8,57.7,29.90,NNE,27,2.0,3.0,70,0.00,,---,0.99,VWS V14.01,2013-03-31 19:23:00,
2013-03-31 14:29:00,67.8,56.9,29.90,NE,43,2.0,6.0,68,0.00,,---,0.99,VWS V14.01,2013-03-31 19:29:00,
2013-03-31 14:34:00,68.3,56.5,29.90,NE,44,5.0,6.0,66,0.00,,---,0.99,VWS V14.01,2013-03-31 19:34:00,
2013-03-31 14:39:00,68.9,57.1,29.90,NE,39,0.0,5.0,66,0.00,,---,0.99,VWS V14.01,2013-03-31 19:39:00,
2013-03-31 14:44:00,68.8,55.7,29.90,NNE,30,5.0,8.0,63,0.00,,---,0.99,VWS V14.01,2013-03-31 19:44:00,
2013-03-31 14:49:00,68.6,56.4,29.90,NNE,30,5.0,6.0,65,0.00,,---,0.99,VWS V14.01,2013-03-31 19:49:00,
2013-03-31 14:54:00,68.6,56.8,29.90,NNE,32,3.0,8.0,66,0.00,,---,0.99,VWS V14.01,2013-03-31 19:54:00,
2013-03-31 14:59:00,68.9,56.7,29.90,NNE,19,3.0,5.0,65,0.00,,---,0.99,VWS V14.01,2013-03-31 19:59:00,
2013-03-31 15:04:00,69.3,57.0,29.90,NNW,332,2.0,3.0,65,0.00,,---,0.99,VWS V14.01,2013-03-31 20:04:00,
2013-03-31 15:09:00,69.6,56.0,29.89,NE,35,5.0,7.0,62,0.00,,---,0.99,VWS V14.01,2013-03-31 20:09:00,
2013-03-31 15:14:00,69.6,56.0,29.89,NE,54,1.0,6.0,62,0.00,,---,0.99,VWS V14.01,2013-03-31 20:14:00,
2013-03-31 15:19:00,69.8,55.8,29.89,NE,53,2.0,5.0,61,0.00,,---,0.99,VWS V14.01,2013-03-31 20:19:00,
2013-03-31 15:24:00,70.3,55.8,29.89,SSE,164,0.0,6.0,60,0.00,,---,0.99,VWS V14.01,2013-03-31 20:24:00,
2013-03-31 15:29:00,70.3,54.8,29.89,NE,35,3.0,5.0,58,0.00,,---,0.99,VWS V14.01,2013-03-31 20:29:00,
2013-03-31 15:34:00,70.1,54.7,29.88,NE,35,3.0,3.0,58,0.00,,---,0.99,VWS V14.01,2013-03-31 20:34:00,
2013-03-31 15:39:00,69.6,53.7,29.88,NE,49,2.0,6.0,57,0.00,,---,0.99,VWS V14.01,2013-03-31 20:39:00,
2013-03-31 15:44:00,69.4,54.9,29.88,NE,44,1.0,5.0,60,0.01,,---,1.00,VWS V14.01,2013-03-31 20:44:00,
2013-03-31 15:49:00,69.4,54.9,29.88,NE,44,2.0,5.0,60,0.01,,---,1.00,VWS V14.01,2013-03-31 20:49:00,
2013-03-31 15:54:00,69.4,54.9,29.88,NE,44,1.0,3.0,60,0.01,,---,1.00,VWS V14.01,2013-03-31 20:54:00,
2013-03-31 15:59:00,70.1,55.1,29.88,NE,44,0.0,2.0,59,0.01,,---,1.00,VWS V14.01,2013-03-31 20:59:00,
2013-03-31 16:04:00,71.1,55.1,29.88,SE,129,5.0,5.0,57,0.01,,---,1.00,VWS V14.01,2013-03-31 21:04:00,
2013-03-31 16:09:00,71.3,55.3,29.88,ESE,102,2.0,5.0,57,0.01,,---,1.00,VWS V14.01,2013-03-31 21:09:00,
2013-03-31 16:14:00,71.6,55.1,29.87,ESE,119,2.0,5.0,56,0.01,,---,1.00,VWS V14.01,2013-03-31 21:14:00,
2013-03-31 16:19:00,71.3,55.8,29.87,SE,131,3.0,3.0,58,0.01,,---,1.00,VWS V14.01,2013-03-31 21:19:00,
2013-03-31 16:24:00,71.3,55.8,29.87,SE,139,3.0,5.0,58,0.01,,---,1.00,VWS V14.01,2013-03-31 21:24:00,
2013-03-31 16:29:00,71.6,54.6,29.86,SSE,160,3.0,5.0,55,0.01,,---,1.00,VWS V14.01,2013-03-31 21:29:00,
2013-03-31 16:34:00,71.6,55.1,29.86,SSE,162,3.0,5.0,56,0.01,,---,1.00,VWS V14.01,2013-03-31 21:34:00,
2013-03-31 16:39:00,71.8,55.3,29.86,South,191,3.0,6.0,56,0.01,,---,1.00,VWS V14.01,2013-03-31 21:39:00,
2013-03-31 16:44:00,72.3,54.2,29.86,SSW,194,1.0,3.0,53,0.01,,---,1.00,VWS V14.01,2013-03-31 21:44:00,
2013-03-31 16:49:00,72.3,56.2,29.86,South,187,5.0,6.0,57,0.00,,---,1.00,VWS V14.01,2013-03-31 21:49:00,
2013-03-31 16:54:00,72.5,55.4,29.86,SSW,195,1.0,6.0,55,0.00,,---,1.00,VWS V14.01,2013-03-31 21:54:00,
2013-03-31 16:59:00,73.0,56.4,29.86,SW,217,2.0,5.0,56,0.00,,---,1.00,VWS V14.01,2013-03-31 21:59:00,
2013-03-31 17:04:00,73.2,55.6,29.86,South,173,8.0,8.0,54,0.00,,---,1.00,VWS V14.01,2013-03-31 22:04:00,
2013-03-31 17:09:00,72.8,56.2,29.86,SW,215,2.0,7.0,56,0.00,,---,1.00,VWS V14.01,2013-03-31 22:09:00,
2013-03-31 17:14:00,72.7,56.6,29.86,South,183,2.0,7.0,57,0.00,,---,1.00,VWS V14.01,2013-03-31 22:14:00,
2013-03-31 17:19:00,72.7,56.6,29.86,South,190,5.0,5.0,57,0.00,,---,1.00,VWS V14.01,2013-03-31 22:19:00,
2013-03-31 17:24:00,72.0,57.4,29.86,SSE,159,2.0,7.0,60,0.00,,---,1.00,VWS V14.01,2013-03-31 22:24:00,
2013-03-31 17:29:00,71.3,57.6,29.86,SSE,160,2.0,3.0,62,0.00,,---,1.00,VWS V14.01,2013-03-31 22:29:00,
2013-03-31 17:34:00,70.6,57.0,29.86,South,184,1.0,3.0,62,0.00,,---,1.00,VWS V14.01,2013-03-31 22:34:00,
2013-03-31 17:39:00,70.1,57.8,29.85,South,184,2.0,2.0,65,0.00,,---,1.00,VWS V14.01,2013-03-31 22:39:00,
2013-03-31 17:44:00,69.8,57.5,29.85,South,184,0.0,2.0,65,0.00,,---,1.00,VWS V14.01,2013-03-31 22:44:00,
2013-03-31 17:49:00,69.6,56.9,29.85,South,184,0.0,0.0,64,0.00,,---,1.00,VWS V14.01,2013-03-31 22:49:00,
2013-03-31 17:54:00,69.4,59.2,29.86,South,184,1.0,1.0,70,0.00,,---,1.00,VWS V14.01,2013-03-31 22:54:00,
2013-03-31 17:59:00,69.4,58.8,29.86,South,184,1.0,1.0,69,0.00,,---,1.00,VWS V14.01,2013-03-31 22:59:00,
2013-03-31 18:04:00,69.6,58.2,29.86,South,184,0.0,1.0,67,0.00,,---,1.00,VWS V14.01,2013-03-31 23:04:00,
2013-03-31 18:09:00,69.9,58.0,29.85,South,184,0.0,0.0,66,0.00,,---,1.00,VWS V14.01,2013-03-31 23:09:00,
2013-03-31 18:14:00,70.3,58.4,29.85,South,184,0.0,2.0,66,0.00,,---,1.00,VWS V14.01,2013-03-31 23:14:00,
2013-03-31 18:19:00,70.9,59.0,29.85,South,184,2.0,2.0,66,0.00,,---,1.00,VWS V14.01,2013-03-31 23:19:00,
2013-03-31 18:24:00,71.3,59.4,29.85,South,184,0.0,2.0,66,0.00,,---,1.00,VWS V14.01,2013-03-31 23:24:00,
2013-03-31 18:29:00,71.5,57.4,29.85,South,184,1.0,2.0,61,0.00,,---,1.00,VWS V14.01,2013-03-31 23:29:00,
2013-03-31 18:34:00,71.6,57.9,29.85,South,184,1.0,3.0,62,0.00,,---,1.00,VWS V14.01,2013-03-31 23:34:00,
2013-03-31 18:39:00,71.6,59.2,29.85,South,184,1.0,2.0,65,0.00,,---,1.00,VWS V14.01,2013-03-31 23:39:00,
2013-03-31 18:44:00,71.1,58.3,29.85,South,184,1.0,2.0,64,0.00,,---,1.00,VWS V14.01,2013-03-31 23:44:00,
2013-03-31 18:49:00,70.8,58.9,29.85,South,184,1.0,1.0,66,0.00,,---,1.00,VWS V14.01,2013-03-31 23:49:00,
2013-03-31 18:54:00,70.3,58.0,29.86,South,184,0.0,1.0,65,0.00,,---,1.00,VWS V14.01,2013-03-31 23:54:00,
2013-03-31 18:59:00,70.1,59.5,29.86,South,184,0.0,1.0,69,0.00,,---,1.00,VWS V14.01,2013-03-31 23:59:00,
2013-03-31 19:04:00,69.6,59.4,29.86,South,184,0.0,0.0,70,0.00,,---,1.00,VWS V14.01,2013-04-01 00:04:00,
2013-03-31 19:09:00,68.8,60.6,29.86,South,184,0.0,0.0,75,0.00,,---,1.00,VWS V14.01,2013-04-01 00:09:00,
2013-03-31 19:14:00,68.1,59.5,29.86,South,184,1.0,1.0,74,0.00,,---,1.00,VWS V14.01,2013-04-01 00:14:00,
2013-03-31 19:19:00,67.1,59.7,29.86,South,184,0.0,2.0,77,0.00,,---,1.00,VWS V14.01,2013-04-01 00:19:00,
2013-03-31 19:24:00,66.0,58.6,29.86,South,184,0.0,0.0,77,0.00,,---,1.00,VWS V14.01,2013-04-01 00:24:00,
2013-03-31 19:29:00,65.2,58.9,29.87,South,184,0.0,2.0,80,0.00,,---,1.00,VWS V14.01,2013-04-01 00:29:00,
2013-03-31 19:34:00,64.5,58.2,29.87,South,184,0.0,0.0,80,0.00,,---,1.00,VWS V14.01,2013-04-01 00:34:00,
2013-03-31 19:39:00,64.2,58.3,29.87,South,184,0.0,0.0,81,0.00,,---,1.00,VWS V14.01,2013-04-01 00:39:00,
2013-03-31 19:44:00,63.2,57.3,29.87,South,184,0.0,0.0,81,0.00,,---,1.00,VWS V14.01,2013-04-01 00:44:00,
2013-03-31 19:49:00,62.6,57.7,29.87,South,184,0.0,0.0,84,0.00,,---,1.00,VWS V14.01,2013-04-01 00:49:00,
2013-03-31 19:54:00,62.0,57.1,29.88,South,184,0.0,0.0,84,0.00,,---,1.00,VWS V14.01,2013-04-01 00:54:00,
2013-03-31 19:59:00,61.5,56.6,29.88,South,184,2.0,2.0,84,0.00,,---,1.00,VWS V14.01,2013-04-01 00:59:00,
2013-03-31 20:04:00,61.0,56.5,29.88,South,184,0.0,2.0,85,0.00,,---,1.00,VWS V14.01,2013-04-01 01:04:00,
2013-03-31 20:09:00,60.4,56.2,29.88,South,184,1.0,1.0,86,0.00,,---,1.00,VWS V14.01,2013-04-01 01:09:00,
2013-03-31 20:14:00,59.9,56.7,29.89,South,184,0.0,2.0,89,0.00,,---,1.00,VWS V14.01,2013-04-01 01:14:00,
2013-03-31 20:19:00,59.5,56.6,29.89,South,184,0.0,1.0,90,0.00,,---,1.00,VWS V14.01,2013-04-01 01:19:00,
2013-03-31 20:24:00,59.0,56.1,29.89,South,186,0.0,2.0,90,0.00,,---,1.00,VWS V14.01,2013-04-01 01:24:00,
2013-03-31 20:29:00,58.7,55.8,29.89,South,186,0.0,0.0,90,0.00,,---,1.00,VWS V14.01,2013-04-01 01:29:00,
2013-03-31 20:34:00,58.3,55.4,29.89,South,186,0.0,1.0,90,0.00,,---,1.00,VWS V14.01,2013-04-01 01:34:00,
2013-03-31 20:39:00,57.6,55.0,29.90,South,186,0.0,1.0,91,0.00,,---,1.00,VWS V14.01,2013-04-01 01:39:00,
2013-03-31 20:44:00,57.2,54.6,29.90,South,186,0.0,0.0,91,0.00,,---,1.00,VWS V14.01,2013-04-01 01:44:00,
2013-03-31 20:49:00,56.9,54.3,29.90,South,186,0.0,0.0,91,0.00,,---,1.00,VWS V14.01,2013-04-01 01:49:00,
2013-03-31 20:54:00,56.7,54.1,29.90,South,186,0.0,0.0,91,0.00,,---,1.00,VWS V14.01,2013-04-01 01:54:00,
2013-03-31 20:59:00,56.3,53.7,29.90,South,186,0.0,2.0,91,0.00,,---,1.00,VWS V14.01,2013-04-01 01:59:00,
2013-03-31 21:04:00,56.2,53.6,29.91,South,186,0.0,0.0,91,0.00,,---,1.00,VWS V14.01,2013-04-01 02:04:00,
2013-03-31 21:09:00,55.7,53.4,29.91,South,186,0.0,0.0,92,0.00,,---,1.00,VWS V14.01,2013-04-01 02:09:00,
2013-03-31 21:14:00,55.1,52.8,29.91,South,186,0.0,0.0,92,0.00,,---,1.00,VWS V14.01,2013-04-01 02:14:00,
2013-03-31 21:19:00,55.0,52.7,29.91,South,186,0.0,0.0,92,0.00,,---,1.00,VWS V14.01,2013-04-01 02:19:00,
2013-03-31 21:24:00,54.8,52.8,29.91,South,186,0.0,0.0,93,0.00,,---,1.00,VWS V14.01,2013-04-01 02:24:00,
2013-03-31 21:29:00,54.5,52.5,29.91,South,186,0.0,0.0,93,0.00,,---,1.00,VWS V14.01,2013-04-01 02:29:00,
2013-03-31 21:34:00,54.2,52.2,29.92,South,186,0.0,0.0,93,0.00,,---,1.00,VWS V14.01,2013-04-01 02:34:00,
2013-03-31 21:39:00,53.9,51.6,29.92,South,186,0.0,0.0,92,0.00,,---,1.00,VWS V14.01,2013-04-01 02:39:00,
2013-03-31 21:44:00,53.9,51.6,29.92,South,186,0.0,0.0,92,0.00,,---,1.00,VWS V14.01,2013-04-01 02:44:00,
2013-03-31 21:49:00,53.3,51.3,29.92,South,186,0.0,0.0,93,0.00,,---,1.00,VWS V14.01,2013-04-01 02:49:00,
2013-03-31 21:54:00,52.9,50.9,29.92,South,186,0.0,0.0,93,0.00,,---,1.00,VWS V14.01,2013-04-01 02:54:00,
2013-03-31 21:59:00,52.6,50.6,29.92,South,186,0.0,0.0,93,0.00,,---,1.00,VWS V14.01,2013-04-01 02:59:00,
2013-03-31 22:04:00,52.3,50.6,29.92,South,186,0.0,0.0,94,0.00,,---,1.00,VWS V14.01,2013-04-01 03:04:00,
2013-03-31 22:09:00,52.0,50.3,29.92,South,186,0.0,0.0,94,0.00,,---,1.00,VWS V14.01,2013-04-01 03:09:00,
2013-03-31 22:14:00,51.9,50.2,29.93,South,186,0.0,0.0,94,0.00,,---,1.00,VWS V14.01,2013-04-01 03:14:00,
2013-03-31 22:19:00,51.6,49.9,29.93,South,186,0.0,0.0,94,0.00,,---,1.00,VWS V14.01,2013-04-01 03:19:00,
2013-03-31 22:24:00,51.3,49.6,29.93,South,186,0.0,0.0,94,0.00,,---,1.00,VWS V14.01,2013-04-01 03:24:00,
2013-03-31 22:29:00,51.0,49.0,29.93,South,186,0.0,0.0,93,0.00,,---,1.00,VWS V14.01,2013-04-01 03:29:00,
2013-03-31 22:35:00,50.8,49.1,29.93,South,186,0.0,0.0,94,0.00,,---,1.00,VWS V14.01,2013-04-01 03:35:00,
2013-03-31 22:40:00,50.5,48.8,29.93,South,186,0.0,0.0,94,0.00,,---,1.00,VWS V14.01,2013-04-01 03:40:00,
2013-03-31 22:45:00,50.2,48.5,29.93,South,186,0.0,0.0,94,0.00,,---,1.00,VWS V14.01,2013-04-01 03:45:00,
2013-03-31 22:50:00,49.8,47.9,29.93,South,186,0.0,0.0,93,0.00,,---,1.00,VWS V14.01,2013-04-01 03:50:00,
2013-03-31 22:55:00,49.5,47.6,29.93,South,186,0.0,0.0,93,0.00,,---,1.00,VWS V14.01,2013-04-01 03:55:00,
2013-03-31 23:00:00,49.2,47.3,29.93,South,186,0.0,0.0,93,0.00,,---,1.00,VWS V14.01,2013-04-01 04:00:00,
2013-03-31 23:05:00,49.1,47.2,29.93,South,186,0.0,0.0,93,0.00,,---,1.00,VWS V14.01,2013-04-01 04:05:00,
2013-03-31 23:10:00,48.8,46.9,29.93,South,186,0.0,0.0,93,0.00,,---,1.00,VWS V14.01,2013-04-01 04:10:00,
2013-03-31 23:12:00,48.8,46.9,29.93,South,186,0.0,0.0,93,0.00,,---,1.00,VWS V14.01,2013-04-01 04:12:00,
2013-03-31 23:17:00,48.5,46.9,29.94,South,186,0.0,0.0,94,0.00,,---,1.00,VWS V14.01,2013-04-01 04:17:00,
2013-03-31 23:22:00,48.2,46.6,29.94,South,186,0.0,0.0,94,0.00,,---,1.00,VWS V14.01,2013-04-01 04:22:00,
2013-03-31 23:27:00,48.0,46.4,29.94,South,186,0.0,0.0,94,0.00,,---,1.00,VWS V14.01,2013-04-01 04:27:00,
2013-03-31 23:32:00,47.9,46.3,29.94,South,186,0.0,0.0,94,0.00,,---,1.00,VWS V14.01,2013-04-01 04:32:00,
2013-03-31 23:37:00,47.9,46.5,29.94,South,186,0.0,0.0,95,0.00,,---,1.00,VWS V14.01,2013-04-01 04:37:00,
2013-03-31 23:42:00,47.9,46.3,29.94,South,186,0.0,0.0,94,0.00,,---,1.00,VWS V14.01,2013-04-01 04:42:00,
2013-03-31 23:48:00,47.6,46.0,29.94,South,186,0.0,0.0,94,0.00,,---,1.00,VWS V14.01,2013-04-01 04:48:00,
2013-03-31 23:53:00,47.4,45.8,29.94,South,186,0.0,0.0,94,0.00,,---,1.00,VWS V14.01,2013-04-01 04:53:00,
2013-03-31 23:58:00,47.4,45.8,29.94,South,186,0.0,0.0,94,0.00,,---,1.00,VWS V14.01,2013-04-01 04:58:00,